Temp
72 72 72 71 72 72 74 74 74 74 74 74 74 74 74 74 74 74 74 73 72 70 68 69 70 69 74 70 72 74 75 75 74 74 74 74 73 73 73 73 72 72 72 72 71 71 71 71 71 72 72 71 70 65 66 67 67 67 66 66 67 64
71 72 71 71 72 72 73 73 71 72 72 73 74 74 73 72 74 71 74 71 68 70 67 66 67 73 68 70 72 74 75 74 74 74 74 73 73 73 73 72 72 72 72 71 72 63 62 67 69 71 71 69 63 62 64 66 66 66 66 65 65 66
72 71 71 71 71 72 71 70 70 70 72 73 74 72 70 71 68 68 68 68 68 66 66 68 68 70 69 72 70 74 74 74 73 74 74 73 73 73 73 72 72 72 71 71 63 60 60 60 60 69 68 63 61 63 63 65 65 66 66 65 64 70
71 71 70 70 70 70 70 69 69 69 70 70 69 69 68 68 67 67 67 66 66 67 66 66 73 74 74 70 69 74 74 74 73 73 74 72 73 73 73 73 72 72 68 65 61 62 62 60 61 60 61 61 61 63 63 65 65 65 65 68 65 71
70 70 70 70 70 69 69 69 68 68 69 69 68 67 67 66 67 67 67 67 66 67 65 64 65 67 67 66 65 66 68 67 67 67 71 66 67 68 68 66 65 65 63 63 62 61 61 62 61 62 62 62 62 62 63 65 65 64 65 67 66 71
69 69 69 69 69 71 70 69 68 68 68 68 67 66 66 66 66 66 66 67 67 65 64 64 64 64 65 65 65 65 65 65 66 66 67 66 65 65 64 64 63 63 62 61 62 61 61 62 62 61 62 62 62 62 62 63 65 65 65 65 67 72
69 68 68 70 69 70 68 69 68 68 68 68 66 65 65 65 65 65 66 67 66 64 64 63 64 63 63 64 64 64 64 64 64 65 66 65 64 64 64 63 63 63 62 62 62 62 61 62 61 62 63 63 62 62 62 65 65 65 65 65 68 72
69 69 68 69 68 68 67 67 68 70 68 69 67 65 64 64 65 65 66 66 67 64 64 63 63 63 63 63 63 64 63 63 64 64 64 65 64 63 63 62 62 63 63 63 64 64 62 64 63 62 63 63 61 61 62 64 66 67 66 65 67 71
70 69 69 69 68 68 67 67 68 68 67 70 65 65 65 65 65 65 66 66 67 64 63 63 62 63 62 62 63 62 63 63 63 63 63 63 64 63 63 63 63 63 62 63 63 63 64 65 63 63 62 63 63 61 61 64 64 65 66 65 66 69
71 70 70 70 68 67 67 67 67 67 67 69 65 65 65 64 64 65 64 65 66 65 64 63 63 62 63 62 62 62 62 62 62 63 63 63 63 63 63 63 63 63 64 63 63 64 64 64 65 64 62 63 63 62 62 63 64 64 65 65 66 67
72 72 70 69 68 67 68 67 68 67 67 67 66 66 65 64 64 64 64 65 65 65 65 64 64 63 62 62 61 61 61 61 62 63 63 62 62 63 63 63 63 63 62 61 63 62 63 62 62 65 63 64 63 62 63 63 64 65 65 66 66 66
72 71 70 69 69 68 68 68 68 67 66 66 67 64 64 64 66 64 64 64 65 64 65 63 63 62 63 62 62 61 61 61 62 63 65 64 63 63 62 63 63 63 62 62 62 61 62 61 62 64 64 65 64 63 62 64 64 65 65 65 65 66
71 70 68 68 68 67 67 68 67 66 66 67 66 65 64 64 64 64 64 64 64 64 63 63 62 63 65 62 62 61 61 61 61 63 64 65 65 62 63 63 62 63 61 60 61 60 62 60 62 62 63 65 64 64 64 65 64 65 64 65 64 64
69 68 68 67 67 66 66 66 65 65 67 65 64 64 64 63 65 64 64 63 63 64 63 63 63 62 63 62 62 62 61 61 62 63 63 64 63 62 62 62 61 62 63 60 60 59 59 61 61 61 62 63 63 62 64 65 63 64 64 64 64 64
69 68 68 67 67 66 65 66 64 64 64 63 63 63 63 63 63 62 63 63 62 64 63 63 63 62 62 62 62 61 61 62 62 62 63 63 63 63 62 62 61 61 59 58 59 61 60 60 61 62 62 62 63 63 63 64 64 64 64 64 64 64
68 66 66 66 65 66 65 64 64 65 63 63 62 63 63 63 63 62 63 62 62 64 63 63 64 62 62 61 61 61 61 61 62 62 62 61 61 61 61 61 61 61 60 60 61 60 60 61 60 61 61 61 62 63 62 62 63 64 64 64 64 64
66 66 65 65 64 64 63 63 63 63 62 61 61 61 62 62 63 63 62 62 62 64 62 64 63 62 61 61 61 61 62 62 62 61 61 61 61 62 61 62 60 60 59 59 60 60 60 59 60 60 60 60 61 62 62 62 62 63 65 63 63 65
66 66 65 65 64 63 63 62 61 61 64 61 60 61 61 62 62 61 61 61 62 63 63 62 63 62 61 62 62 62 62 63 61 60 61 62 62 61 60 61 60 60 61 61 59 59 59 59 61 61 59 60 59 60 60 61 62 64 62 62 62 64
66 64 64 64 63 61 60 60 60 61 60 60 60 60 61 61 60 61 60 61 62 62 62 61 62 63 61 62 61 62 62 62 61 61 61 60 61 61 61 60 60 60 61 61 60 59 59 59 58 58 60 60 60 60 60 61 61 61 61 62 63 65
63 63 62 62 62 60 60 60 60 59 60 60 59 61 58 59 58 59 61 61 62 61 62 61 61 61 61 62 61 62 62 62 62 62 60 59 59 60 60 60 59 60 59 60 61 61 60 59 57 58 58 57 59 60 60 60 59 60 61 63 63 62
62 63 63 62 61 61 59 58 58 58 58 57 59 58 58 58 58 58 60 61 61 60 60 61 61 61 60 64 61 60 62 61 60 61 61 60 61 61 61 61 59 58 58 56 59 61 60 58 58 57 56 55 58 61 62 60 60 60 61 61 62 62
62 62 62 62 62 61 60 61 59 57 56 57 58 59 58 57 58 59 58 59 59 59 59 59 61 59 60 61 60 59 60 61 61 60 61 60 60 62 62 60 59 58 57 56 58 61 60 58 55 54 53 53 53 55 59 58 60 61 62 62 62 63
62 62 60 62 62 60 57 59 59 56 59 56 56 57 57 58 59 58 56 56 57 57 57 58 59 60 59 60 60 60 61 61 61 62 61 59 59 60 60 59 59 58 58 59 60 61 58 56 55 58 55 55 52 53 56 56 57 60 61 61 61 62
62 61 60 62 62 59 60 58 59 58 56 56 58 58 56 56 57 58 58 58 58 56 57 57 57 60 60 59 59 59 58 59 59 61 60 59 59 59 59 60 60 58 58 58 58 58 59 58 55 55 55 53 53 51 50 53 53 57 61 62 61 62
61 61 60 61 60 60 60 58 58 59 59 59 58 55 56 56 56 59 58 58 57 56 58 58 57 58 60 59 57 58 58 58 58 59 59 58 59 59 57 57 59 59 58 58 58 58 60 60 58 59 56 54 50 50 50 53 53 57 59 61 61 62
59 59 60 59 60 61 61 59 58 58 56 54 54 54 54 55 56 56 57 57 56 56 57 57 56 57 58 59 58 58 57 58 58 59 59 57 57 58 58 59 60 61 60 60 60 59 59 60 59 59 57 56 55 52 54 55 55 54 57 59 60 62
61 60 59 59 61 62 59 60 60 59 58 57 55 53 52 53 55 56 54 55 55 56 56 58 56 56 57 58 58 57 57 57 57 57 59 57 56 56 58 60 60 60 61 60 59 58 60 60 60 59 58 58 59 59 59 55 53 52 54 56 57 58
60 60 60 60 60 62 61 58 57 56 57 55 56 56 54 54 54 55 54 54 55 55 55 56 57 56 57 58 58 57 57 58 58 58 59 57 56 56 58 58 57 56 57 57 57 58 58 60 58 57 58 56 57 59 59 57 55 56 52 53 55 56
60 59 58 60 60 60 61 59 59 57 56 56 56 56 55 55 54 54 54 53 54 54 54 55 55 57 56 58 59 57 57 57 57 57 59 57 56 56 55 54 54 54 54 54 55 56 58 58 57 57 57 57 58 57 56 55 55 55 52 51 52 52
58 58 58 58 60 58 59 60 58 58 57 55 56 54 55 53 53 53 53 52 53 54 54 55 54 54 55 56 56 57 57 57 56 57 57 55 55 55 54 53 52 53 53 54 53 54 54 53 54 55 57 57 57 57 54 53 53 53 54 54 53 53
58 58 58 57 58 58 58 60 59 58 58 57 56 56 55 53 53 53 53 53 53 53 53 54 54 54 54 55 55 56 56 55 56 58 56 55 54 53 52 52 53 53 53 53 53 53 54 53 53 53 54 55 54 55 54 53 54 52 51 51 50 51
57 57 57 58 58 58 58 59 61 59 58 58 57 57 56 55 53 52 51 52 53 53 53 53 53 54 54 54 55 54 54 54 55 54 53 54 54 54 53 53 52 53 52 51 52 53 52 52 52 52 52 52 52 53 53 53 52 52 53 52 51 51
58 58 59 59 59 58 57 58 59 59 58 58 57 57 56 54 52 53 51 51 52 52 53 54 54 54 53 53 55 54 54 54 54 55 53 53 52 53 54 53 54 53 52 52 51 52 51 49 50 51 49 49 50 52 51 49 51 51 50 49 50 47
60 61 61 61 60 58 58 58 58 59 59 59 58 57 56 56 54 53 53 52 52 52 53 53 52 53 53 53 54 54 54 53 52 52 53 53 53 52 53 53 52 52 52 50 51 51 50 49 49 48 49 51 50 50 49 49 48 50 48 49 47 48
61 60 60 60 59 59 58 58 59 58 59 60 60 59 57 56 54 53 52 52 51 52 52 51 52 53 53 53 52 52 53 53 52 53 53 54 55 53 53 53 52 52 51 50 51 51 50 51 52 50 49 49 51 50 49 48 49 51 51 51 50 50
61 60 59 59 58 58 58 59 58 58 59 60 61 59 57 57 54 53 53 53 52 52 52 52 51 52 52 53 52 52 53 52 52 53 53 52 52 52 51 52 51 52 52 53 52 51 49 50 49 48 48 48 51 48 48 49 50 49 48 48 50 47
58 59 58 57 56 57 57 58 58 59 58 58 59 59 59 57 56 54 53 52 53 53 52 53 52 53 52 52 52 51 52 51 52 52 52 52 52 51 51 53 52 50 51 49 52 50 49 50 47 48 48 48 48 49 48 48 49 49 49 48 48 48
MSLP
1014.03 1014.15 1014.31 1014.47 1014.51 1014.43 1014.39 1014.43 1014.55 1014.63 1014.75 1014.91 1014.99 1015.11 1015.23 1015.31 1015.43 1015.55 1015.63 1015.75 1015.87 1016.03 1016.11 1016.15 1016.23 1016.35 1016.43 1016.51 1016.55 1016.63 1016.71 1016.79 1016.87 1016.95 1017.03 1017.11 1017.19 1017.27 1017.31 1017.35 1017.39 1017.43 1017.39 1017.39 1017.47 1017.55 1017.63 1017.75 1017.83 1017.83 1017.79 1017.83 1017.75 1017.79 1017.83 1017.87 1017.99 1018.07 1018.19 1018.27 1018.39 1018.51
1013.99 1014.19 1014.35 1014.47 1014.47 1014.47 1014.43 1014.55 1014.67 1014.71 1014.83 1014.95 1015.07 1015.15 1015.31 1015.43 1015.51 1015.67 1015.75 1015.95 1016.07 1016.15 1016.27 1016.31 1016.35 1016.39 1016.55 1016.59 1016.63 1016.67 1016.71 1016.83 1016.91 1016.95 1017.03 1017.15 1017.19 1017.27 1017.31 1017.39 1017.43 1017.47 1017.47 1017.43 1017.47 1017.63 1017.75 1017.79 1017.87 1017.91 1017.91 1017.95 1017.99 1017.95 1017.95 1017.99 1018.07 1018.15 1018.27 1018.35 1018.43 1018.51
1014.15 1014.23 1014.35 1014.43 1014.47 1014.51 1014.55 1014.67 1014.79 1014.83 1014.91 1014.99 1015.07 1015.27 1015.43 1015.55 1015.71 1015.83 1015.99 1016.15 1016.23 1016.27 1016.35 1016.39 1016.47 1016.51 1016.59 1016.63 1016.67 1016.71 1016.75 1016.87 1016.99 1017.03 1017.07 1017.15 1017.27 1017.31 1017.35 1017.39 1017.43 1017.47 1017.55 1017.47 1017.51 1017.67 1017.79 1017.87 1017.95 1018.03 1018.03 1018.11 1018.11 1018.03 1018.03 1018.07 1018.19 1018.23 1018.35 1018.39 1018.47 1018.47
1014.27 1014.31 1014.31 1014.39 1014.47 1014.55 1014.67 1014.79 1014.87 1014.91 1014.99 1015.11 1015.23 1015.47 1015.59 1015.71 1015.83 1015.99 1016.11 1016.23 1016.31 1016.39 1016.43 1016.51 1016.51 1016.51 1016.55 1016.71 1016.79 1016.79 1016.83 1016.95 1017.15 1017.11 1017.19 1017.27 1017.31 1017.35 1017.39 1017.43 1017.43 1017.51 1017.59 1017.59 1017.59 1017.67 1017.79 1017.87 1017.95 1018.07 1018.11 1018.15 1018.15 1018.11 1018.11 1018.15 1018.23 1018.31 1018.39 1018.39 1018.51 1018.47
1014.15 1014.31 1014.39 1014.43 1014.55 1014.67 1014.75 1014.83 1014.91 1014.99 1015.07 1015.19 1015.39 1015.59 1015.75 1015.87 1015.95 1016.03 1016.15 1016.23 1016.31 1016.43 1016.59 1016.67 1016.75 1016.71 1016.79 1016.91 1016.99 1017.03 1017.07 1017.15 1017.19 1017.31 1017.31 1017.47 1017.47 1017.51 1017.51 1017.59 1017.59 1017.63 1017.71 1017.71 1017.71 1017.75 1017.83 1017.91 1017.95 1018.03 1018.15 1018.11 1018.19 1018.11 1018.15 1018.19 1018.27 1018.39 1018.43 1018.39 1018.47 1018.47
1014.11 1014.35 1014.43 1014.51 1014.63 1014.67 1014.75 1014.95 1015.03 1015.11 1015.23 1015.35 1015.55 1015.75 1015.91 1015.99 1016.07 1016.11 1016.15 1016.23 1016.31 1016.51 1016.67 1016.75 1016.83 1016.91 1017.03 1017.11 1017.19 1017.27 1017.31 1017.31 1017.35 1017.43 1017.43 1017.63 1017.67 1017.63 1017.67 1017.71 1017.71 1017.75 1017.75 1017.79 1017.83 1017.83 1017.87 1017.95 1017.99 1017.99 1018.11 1018.15 1018.23 1018.15 1018.19 1018.23 1018.31 1018.39 1018.43 1018.47 1018.47 1018.43
1014.11 1014.39 1014.51 1014.51 1014.59 1014.63 1014.83 1014.87 1014.99 1015.11 1015.35 1015.55 1015.67 1015.87 1016.03 1016.07 1016.15 1016.19 1016.27 1016.27 1016.43 1016.55 1016.67 1016.83 1016.95 1016.99 1017.19 1017.31 1017.39 1017.47 1017.51 1017.47 1017.51 1017.55 1017.55 1017.67 1017.75 1017.71 1017.75 1017.79 1017.79 1017.79 1017.87 1017.91 1017.95 1017.99 1017.91 1017.91 1017.95 1017.99 1017.99 1018.15 1018.19 1018.19 1018.19 1018.27 1018.31 1018.35 1018.39 1018.43 1018.43 1018.43
1013.91 1014.15 1014.31 1014.39 1014.51 1014.67 1014.75 1014.83 1014.95 1015.03 1015.31 1015.47 1015.67 1015.91 1016.07 1016.15 1016.19 1016.27 1016.31 1016.35 1016.39 1016.55 1016.71 1016.91 1017.07 1017.15 1017.35 1017.43 1017.51 1017.59 1017.63 1017.63 1017.63 1017.63 1017.63 1017.67 1017.83 1017.87 1017.83 1017.83 1017.83 1017.91 1017.95 1018.03 1018.07 1017.99 1017.95 1017.87 1017.83 1017.91 1017.95 1018.15 1018.15 1018.23 1018.19 1018.23 1018.23 1018.27 1018.35 1018.39 1018.43 1018.39
1013.75 1013.99 1014.11 1014.27 1014.55 1014.63 1014.71 1014.79 1014.91 1015.07 1015.35 1015.39 1015.75 1015.95 1016.07 1016.19 1016.27 1016.27 1016.27 1016.31 1016.39 1016.59 1016.79 1017.03 1017.19 1017.27 1017.35 1017.51 1017.55 1017.63 1017.71 1017.75 1017.71 1017.75 1017.79 1017.83 1017.83 1017.91 1017.95 1017.95 1017.99 1018.03 1018.07 1018.11 1018.11 1018.07 1017.99 1017.91 1017.83 1017.79 1017.91 1018.03 1018.19 1018.23 1018.19 1018.23 1018.27 1018.35 1018.39 1018.43 1018.43 1018.39
1013.59 1013.75 1013.95 1014.19 1014.43 1014.63 1014.71 1014.87 1014.95 1015.11 1015.31 1015.43 1015.75 1015.95 1016.07 1016.23 1016.23 1016.23 1016.31 1016.31 1016.39 1016.55 1016.79 1017.07 1017.23 1017.31 1017.43 1017.51 1017.55 1017.67 1017.75 1017.75 1017.83 1017.87 1017.91 1017.95 1017.87 1017.91 1017.95 1018.03 1018.07 1018.11 1018.19 1018.19 1018.19 1018.11 1018.07 1018.03 1017.87 1017.83 1017.91 1018.07 1018.07 1018.23 1018.23 1018.19 1018.31 1018.35 1018.39 1018.43 1018.47 1018.43
1013.43 1013.59 1013.87 1014.19 1014.43 1014.59 1014.71 1014.83 1014.87 1014.99 1015.23 1015.43 1015.63 1015.83 1016.03 1016.15 1016.27 1016.31 1016.35 1016.39 1016.47 1016.55 1016.79 1017.07 1017.19 1017.31 1017.47 1017.51 1017.55 1017.63 1017.75 1017.79 1017.87 1017.95 1017.99 1018.03 1017.99 1017.99 1018.03 1018.07 1018.15 1018.19 1018.27 1018.35 1018.31 1018.19 1018.19 1018.15 1017.99 1017.83 1017.83 1017.91 1017.87 1018.03 1018.19 1018.27 1018.35 1018.35 1018.39 1018.43 1018.43 1018.43
1013.59 1013.71 1013.95 1014.23 1014.35 1014.59 1014.67 1014.75 1014.83 1014.99 1015.27 1015.47 1015.59 1015.83 1016.03 1016.15 1016.27 1016.35 1016.39 1016.47 1016.55 1016.71 1016.87 1017.07 1017.15 1017.31 1017.43 1017.51 1017.51 1017.59 1017.71 1017.79 1017.87 1017.95 1018.03 1018.11 1018.11 1018.11 1018.11 1018.11 1018.15 1018.19 1018.31 1018.39 1018.39 1018.35 1018.27 1018.19 1018.07 1017.95 1017.83 1017.83 1017.87 1018.03 1018.11 1018.19 1018.39 1018.47 1018.47 1018.43 1018.47 1018.55
1013.59 1013.75 1013.99 1014.15 1014.31 1014.43 1014.59 1014.71 1014.87 1015.03 1015.31 1015.55 1015.71 1015.91 1016.11 1016.23 1016.31 1016.43 1016.47 1016.55 1016.63 1016.79 1017.07 1017.07 1017.15 1017.19 1017.31 1017.35 1017.35 1017.47 1017.63 1017.75 1017.79 1017.87 1017.95 1018.07 1018.11 1018.15 1018.19 1018.23 1018.27 1018.31 1018.43 1018.47 1018.43 1018.43 1018.35 1018.31 1018.23 1018.19 1018.03 1018.03 1017.95 1018.03 1018.11 1018.19 1018.31 1018.43 1018.59 1018.67 1018.71 1018.75
1013.59 1013.83 1013.99 1014.11 1014.27 1014.51 1014.63 1014.75 1014.91 1015.11 1015.35 1015.59 1015.79 1015.95 1016.07 1016.19 1016.31 1016.47 1016.55 1016.67 1016.71 1016.83 1017.07 1017.03 1017.07 1017.19 1017.19 1017.27 1017.31 1017.39 1017.51 1017.63 1017.63 1017.71 1017.87 1017.99 1018.07 1018.15 1018.23 1018.27 1018.27 1018.39 1018.55 1018.55 1018.55 1018.55 1018.39 1018.43 1018.47 1018.39 1018.27 1018.19 1018.07 1018.07 1018.03 1018.19 1018.31 1018.39 1018.47 1018.63 1018.67 1018.79
1013.51 1013.91 1014.03 1014.23 1014.35 1014.51 1014.63 1014.79 1015.03 1015.27 1015.47 1015.67 1015.87 1016.03 1016.15 1016.27 1016.39 1016.51 1016.63 1016.75 1016.79 1016.83 1016.91 1016.99 1017.07 1017.19 1017.31 1017.31 1017.39 1017.47 1017.47 1017.43 1017.47 1017.55 1017.71 1017.87 1017.99 1018.11 1018.15 1018.19 1018.23 1018.47 1018.59 1018.63 1018.63 1018.59 1018.51 1018.55 1018.59 1018.59 1018.55 1018.35 1018.27 1018.23 1018.19 1018.23 1018.27 1018.39 1018.43 1018.47 1018.59 1018.75
1013.63 1013.99 1014.11 1014.23 1014.39 1014.55 1014.75 1014.99 1015.27 1015.47 1015.67 1015.79 1015.95 1016.11 1016.27 1016.39 1016.51 1016.63 1016.71 1016.83 1016.91 1016.91 1016.95 1016.99 1017.15 1017.43 1017.63 1017.71 1017.75 1017.75 1017.79 1017.55 1017.47 1017.59 1017.71 1017.83 1017.95 1018.07 1018.11 1018.11 1018.23 1018.39 1018.55 1018.71 1018.63 1018.75 1018.67 1018.63 1018.71 1018.71 1018.67 1018.51 1018.43 1018.39 1018.39 1018.35 1018.39 1018.43 1018.43 1018.51 1018.59 1018.67
1013.79 1013.95 1014.11 1014.31 1014.51 1014.75 1015.03 1015.31 1015.55 1015.75 1015.91 1016.03 1016.15 1016.31 1016.43 1016.51 1016.63 1016.71 1016.79 1016.83 1016.91 1016.91 1016.99 1017.03 1017.23 1017.35 1017.63 1017.95 1018.23 1018.31 1018.07 1018.19 1017.83 1017.67 1017.71 1017.79 1017.91 1018.03 1018.07 1018.15 1018.31 1018.39 1018.47 1018.59 1018.71 1018.87 1018.87 1018.83 1018.87 1018.87 1018.79 1018.67 1018.59 1018.51 1018.51 1018.51 1018.51 1018.51 1018.47 1018.59 1018.67 1018.71
1013.87 1013.95 1014.19 1014.47 1014.75 1015.03 1015.35 1015.59 1015.83 1015.99 1016.07 1016.27 1016.39 1016.43 1016.51 1016.59 1016.71 1016.83 1016.91 1016.99 1017.03 1016.99 1017.03 1017.11 1017.35 1017.55 1017.63 1017.95 1018.23 1018.11 1018.15 1018.27 1018.19 1017.91 1017.91 1017.95 1018.03 1018.03 1018.11 1018.15 1018.39 1018.55 1018.47 1018.47 1018.75 1018.83 1018.91 1018.99 1018.99 1018.95 1018.83 1018.79 1018.75 1018.59 1018.59 1018.55 1018.47 1018.51 1018.67 1018.71 1018.67 1018.67
1013.95 1014.19 1014.47 1014.79 1015.11 1015.43 1015.67 1015.95 1016.07 1016.15 1016.27 1016.35 1016.43 1016.47 1016.47 1016.55 1016.71 1016.83 1016.95 1017.03 1017.07 1017.11 1017.07 1017.19 1017.31 1017.43 1017.51 1017.75 1017.95 1017.95 1018.15 1018.31 1018.23 1018.27 1018.23 1018.31 1018.23 1018.19 1018.23 1018.35 1018.35 1018.59 1018.59 1018.59 1018.71 1018.79 1018.83 1018.99 1019.07 1019.03 1018.91 1018.83 1018.79 1018.75 1018.71 1018.67 1018.59 1018.59 1018.71 1018.75 1018.71 1018.63
1014.19 1014.43 1014.79 1015.11 1015.35 1015.63 1015.79 1015.95 1016.23 1016.35 1016.43 1016.47 1016.51 1016.55 1016.55 1016.55 1016.63 1016.75 1016.83 1016.91 1016.99 1017.07 1017.03 1017.11 1017.23 1017.31 1017.39 1017.63 1017.87 1017.95 1018.11 1018.23 1018.19 1018.19 1018.63 1018.43 1018.31 1018.31 1018.43 1018.47 1018.43 1018.47 1018.63 1018.83 1018.91 1018.91 1018.87 1018.95 1019.11 1019.07 1019.03 1018.87 1018.79 1018.87 1018.91 1018.83 1018.79 1018.83 1018.91 1018.83 1018.79 1018.67
1014.43 1014.63 1014.91 1015.27 1015.47 1015.63 1015.91 1016.23 1016.39 1016.47 1016.55 1016.63 1016.59 1016.63 1016.71 1016.75 1016.75 1016.75 1016.79 1016.79 1016.87 1016.91 1016.95 1017.03 1017.07 1017.19 1017.35 1017.47 1017.75 1017.91 1018.03 1018.11 1018.23 1018.31 1018.27 1018.27 1018.15 1018.27 1018.27 1018.27 1018.47 1018.47 1018.67 1018.87 1019.11 1019.07 1018.99 1018.99 1019.11 1019.27 1019.23 1019.07 1018.91 1018.99 1019.07 1019.07 1019.15 1019.19 1019.23 1019.19 1018.99 1018.99
1014.59 1014.79 1014.91 1014.91 1015.11 1015.43 1015.55 1015.75 1016.07 1016.47 1016.51 1016.55 1016.51 1016.47 1016.55 1016.67 1016.71 1016.79 1016.83 1016.87 1016.87 1016.87 1016.87 1016.91 1016.95 1017.07 1017.23 1017.43 1017.67 1017.87 1018.03 1018.07 1018.15 1018.11 1018.15 1018.19 1018.27 1018.27 1018.35 1018.39 1018.51 1018.67 1018.75 1018.87 1019.11 1019.07 1019.07 1019.11 1019.35 1019.43 1019.55 1019.47 1019.23 1019.03 1019.15 1019.19 1019.35 1019.15 1019.03 1019.15 1019.15 1019.23
1014.51 1014.67 1014.83 1014.87 1014.95 1015.23 1015.59 1015.87 1015.95 1016.39 1016.39 1016.55 1016.63 1016.59 1016.63 1016.79 1016.83 1016.83 1016.83 1016.87 1016.95 1016.91 1016.87 1016.87 1016.91 1017.03 1017.19 1017.39 1017.63 1017.79 1017.91 1018.03 1018.15 1018.19 1018.35 1018.43 1018.39 1018.43 1018.47 1018.55 1018.47 1018.51 1018.87 1018.99 1019.07 1019.03 1018.99 1018.95 1019.31 1019.75 1019.55 1019.43 1019.79 1019.63 1019.51 1019.47 1019.43 1019.27 1019.19 1019.07 1019.11 1019.15
1014.55 1014.63 1014.75 1014.79 1014.95 1015.19 1015.51 1015.87 1016.11 1016.23 1016.47 1016.43 1016.71 1016.87 1016.91 1016.95 1016.95 1016.91 1016.99 1016.95 1016.95 1016.95 1016.87 1016.99 1016.99 1017.07 1017.23 1017.47 1017.67 1017.83 1017.99 1018.07 1018.15 1018.27 1018.39 1018.51 1018.59 1018.63 1018.63 1018.59 1018.59 1018.59 1018.67 1019.07 1019.19 1019.11 1018.95 1018.95 1019.07 1019.23 1019.59 1019.79 1019.99 1019.91 1019.91 1019.75 1019.79 1019.51 1019.19 1018.99 1019.11 1019.23
1014.43 1014.59 1014.63 1014.79 1015.03 1015.31 1015.63 1015.99 1016.23 1016.43 1016.43 1016.67 1016.91 1016.99 1016.99 1017.15 1017.15 1017.11 1017.11 1017.07 1017.15 1017.11 1017.07 1017.11 1017.19 1017.27 1017.35 1017.51 1017.71 1017.87 1017.95 1018.03 1018.07 1018.23 1018.35 1018.39 1018.51 1018.59 1018.59 1018.59 1018.67 1018.75 1018.79 1018.91 1019.19 1019.07 1019.07 1019.03 1019.07 1018.95 1019.19 1019.95 1020.11 1020.07 1019.95 1019.99 1019.95 1019.75 1019.39 1019.23 1019.19 1019.19
1014.51 1014.59 1014.63 1014.91 1015.11 1015.35 1015.67 1015.99 1016.31 1016.47 1016.75 1016.91 1017.15 1017.19 1017.35 1017.43 1017.39 1017.31 1017.31 1017.35 1017.35 1017.35 1017.31 1017.35 1017.39 1017.39 1017.43 1017.55 1017.71 1017.71 1017.75 1017.83 1017.99 1018.11 1018.27 1018.39 1018.51 1018.63 1018.63 1018.67 1018.71 1018.75 1018.83 1018.91 1018.95 1019.07 1019.19 1019.07 1019.07 1019.07 1019.15 1019.27 1019.31 1019.59 1019.91 1019.95 1019.91 1020.07 1019.51 1019.39 1019.27 1019.23
1014.39 1014.51 1014.67 1015.03 1015.27 1015.55 1015.99 1016.19 1016.27 1016.39 1016.59 1016.83 1017.07 1017.31 1017.31 1017.43 1017.43 1017.51 1017.55 1017.55 1017.59 1017.59 1017.55 1017.47 1017.59 1017.55 1017.59 1017.63 1017.71 1017.79 1017.83 1017.87 1017.99 1018.11 1018.23 1018.35 1018.47 1018.55 1018.67 1018.71 1018.75 1018.79 1018.83 1018.83 1018.91 1019.19 1019.23 1019.23 1019.19 1019.23 1019.27 1019.35 1019.35 1019.43 1019.55 1019.63 1019.79 1019.95 1020.11 1019.75 1019.47 1019.35
1014.39 1014.43 1014.79 1015.19 1015.55 1015.67 1016.11 1016.47 1016.71 1016.91 1017.07 1017.15 1017.11 1017.19 1017.35 1017.51 1017.75 1017.71 1017.67 1017.79 1017.79 1017.87 1017.83 1017.71 1017.63 1017.63 1017.63 1017.63 1017.67 1017.79 1017.87 1017.95 1018.03 1018.15 1018.23 1018.35 1018.51 1018.63 1018.71 1018.83 1018.87 1018.87 1018.95 1018.99 1018.99 1019.23 1019.35 1019.31 1019.43 1019.47 1019.39 1019.43 1019.43 1019.47 1019.55 1019.67 1019.43 1019.47 1019.67 1020.03 1019.87 1019.39
1014.51 1014.79 1015.23 1015.51 1015.83 1016.11 1016.27 1016.59 1016.87 1017.19 1017.51 1017.59 1017.51 1017.47 1017.55 1017.71 1017.83 1017.91 1017.83 1017.99 1017.99 1018.07 1018.03 1017.99 1017.87 1017.79 1017.75 1017.67 1017.67 1017.79 1017.87 1017.95 1018.07 1018.19 1018.27 1018.47 1018.63 1018.71 1018.75 1018.83 1018.87 1018.95 1018.99 1019.11 1019.11 1019.15 1019.23 1019.31 1019.35 1019.43 1019.55 1019.63 1019.55 1019.59 1019.63 1019.63 1019.59 1019.59 1019.71 1019.91 1020.27 1020.07
1014.91 1015.31 1015.67 1015.95 1016.15 1016.43 1016.59 1016.79 1017.11 1017.35 1017.55 1017.91 1017.95 1017.95 1017.79 1017.91 1018.07 1018.15 1018.11 1018.23 1018.19 1018.15 1018.11 1018.03 1018.03 1017.95 1017.83 1017.79 1017.79 1017.83 1017.87 1017.95 1018.07 1018.19 1018.35 1018.51 1018.67 1018.79 1018.91 1018.99 1019.07 1019.03 1019.03 1018.99 1019.11 1019.03 1019.07 1019.19 1019.19 1019.39 1019.47 1019.47 1019.59 1019.67 1019.47 1019.43 1019.55 1019.71 1019.83 1019.91 1020.07 1020.15
1015.71 1015.99 1016.31 1016.51 1016.51 1016.55 1016.67 1016.67 1016.87 1017.19 1017.43 1017.83 1018.15 1018.03 1017.95 1018.15 1018.35 1018.39 1018.35 1018.43 1018.31 1018.31 1018.23 1018.15 1018.07 1018.07 1017.95 1017.91 1017.91 1017.91 1017.95 1018.03 1018.07 1018.15 1018.35 1018.51 1018.71 1018.91 1019.07 1019.15 1019.23 1019.19 1019.19 1019.19 1019.23 1019.27 1019.31 1019.47 1019.47 1019.43 1019.51 1019.39 1019.51 1019.51 1019.55 1019.71 1019.87 1019.79 1019.79 1019.91 1019.99 1020.07
1016.75 1016.79 1016.83 1016.83 1016.75 1016.63 1016.47 1016.47 1016.51 1016.79 1017.19 1017.59 1017.87 1017.95 1017.95 1018.19 1018.39 1018.47 1018.51 1018.47 1018.51 1018.43 1018.35 1018.27 1018.19 1018.11 1018.11 1018.07 1018.03 1018.15 1018.11 1018.15 1018.19 1018.27 1018.47 1018.67 1018.87 1018.95 1019.11 1019.19 1019.27 1019.31 1019.43 1019.51 1019.51 1019.43 1019.47 1019.47 1019.47 1019.51 1019.67 1019.71 1019.67 1019.71 1019.71 1019.75 1019.87 1019.99 1019.87 1019.99 1020.07 1020.39
1016.47 1016.31 1016.19 1016.11 1016.19 1016.39 1016.51 1016.55 1016.71 1016.87 1016.99 1017.31 1017.63 1017.71 1017.87 1018.19 1018.43 1018.51 1018.63 1018.55 1018.51 1018.43 1018.47 1018.31 1018.27 1018.19 1018.23 1018.19 1018.15 1018.23 1018.27 1018.27 1018.31 1018.39 1018.55 1018.67 1018.91 1018.99 1019.07 1019.19 1019.31 1019.47 1019.55 1019.55 1019.59 1019.51 1019.55 1019.75 1019.71 1019.63 1019.91 1020.23 1020.15 1020.03 1020.11 1020.31 1020.27 1020.19 1020.43 1020.39 1020.19 1020.23
1014.99 1014.91 1014.87 1015.11 1015.67 1016.31 1016.55 1016.67 1016.79 1016.87 1017.03 1017.23 1017.43 1017.47 1017.71 1017.95 1018.35 1018.55 1018.67 1018.55 1018.55 1018.47 1018.47 1018.39 1018.35 1018.23 1018.27 1018.31 1018.27 1018.27 1018.39 1018.47 1018.51 1018.55 1018.63 1018.75 1018.91 1019.07 1019.19 1019.31 1019.43 1019.51 1019.67 1019.95 1019.87 1019.79 1019.91 1020.03 1020.11 1020.27 1020.23 1020.07 1020.23 1020.31 1020.39 1020.47 1020.43 1020.39 1020.39 1020.27 1020.39 1020.55
1014.35 1014.55 1014.83 1015.27 1015.83 1016.23 1016.55 1016.75 1016.87 1016.99 1017.07 1017.19 1017.23 1017.31 1017.51 1017.83 1018.23 1018.47 1018.67 1018.71 1018.75 1018.79 1018.71 1018.67 1018.59 1018.47 1018.55 1018.43 1018.43 1018.43 1018.47 1018.51 1018.59 1018.63 1018.67 1018.79 1018.95 1019.11 1019.23 1019.35 1019.55 1019.71 1019.87 1019.99 1019.95 1020.03 1020.15 1020.11 1020.19 1020.27 1020.35 1020.39 1020.47 1020.59 1020.67 1020.71 1020.55 1020.51 1020.47 1020.51 1020.59 1020.63
1014.11 1014.67 1015.23 1015.59 1015.83 1016.07 1016.43 1016.75 1016.83 1017.07 1017.23 1017.27 1017.27 1017.27 1017.51 1017.83 1018.19 1018.43 1018.55 1018.63 1018.75 1018.83 1018.87 1018.87 1018.83 1018.75 1018.71 1018.67 1018.55 1018.55 1018.55 1018.59 1018.59 1018.63 1018.71 1018.83 1019.03 1019.19 1019.35 1019.47 1019.67 1019.75 1019.91 1020.07 1019.99 1020.11 1020.31 1020.31 1020.39 1020.47 1020.51 1020.63 1020.55 1020.75 1020.87 1020.83 1020.87 1020.87 1020.87 1020.83 1020.75 1020.83
1015.99 1016.35 1016.99 1017.67 1017.47 1017.11 1016.67 1016.55 1016.63 1016.75 1017.19 1017.55 1017.47 1017.19 1017.39 1017.71 1018.03 1018.31 1018.55 1018.67 1018.71 1018.83 1018.95 1018.99 1018.95 1018.99 1018.91 1018.87 1018.75 1018.63 1018.63 1018.67 1018.67 1018.67 1018.79 1018.95 1019.11 1019.27 1019.39 1019.51 1019.63 1019.75 1019.87 1020.03 1020.07 1020.23 1020.35 1020.39 1020.59 1020.59 1020.59 1020.59 1020.63 1020.67 1020.79 1020.87 1020.95 1021.11 1021.07 1021.07 1021.07 1020.99
Wind_Speed
6 7 5 5 4 5 8 11 10 11 12 12 12 12 12 12 11 10 9 8 7 4 3 3 4 3 7 3 5 6 8 8 8 8 8 8 7 7 6 5 4 3 1 2 3 4 5 6 7 7 6 7 5 4 3 5 4 4 3 3 2 2
7 7 6 5 4 4 5 8 5 5 6 8 10 10 8 5 7 4 9 6 3 3 3 3 3 5 2 3 4 7 8 8 8 9 8 8 8 7 7 6 4 2 0 1 3 2 3 5 6 7 6 6 3 2 1 3 4 4 3 3 3 3
9 7 7 5 4 4 5 4 4 4 4 6 7 6 4 5 4 4 3 3 3 2 3 3 2 4 3 4 3 7 8 8 8 7 9 8 8 7 6 6 5 3 1 1 2 2 3 3 3 6 4 2 1 0 0 3 3 4 4 3 3 5
9 7 7 6 5 4 4 4 4 4 4 4 5 4 5 5 4 3 3 3 3 2 2 3 6 9 7 3 1 6 7 8 8 9 9 6 7 6 7 6 6 4 2 2 2 3 3 4 3 2 2 1 1 0 2 4 5 4 4 3 4 7
7 6 6 6 6 5 4 4 4 4 4 4 5 4 4 4 4 4 3 3 2 2 2 1 1 2 3 2 1 1 2 1 2 2 4 3 3 2 3 2 1 2 1 0 2 2 3 4 3 3 2 1 0 1 1 4 4 4 4 3 4 8
6 6 6 5 5 6 6 4 4 4 4 4 4 4 4 4 4 3 3 3 3 3 1 1 2 3 3 2 2 2 2 2 2 3 2 3 2 2 1 2 2 2 1 0 0 2 1 1 3 3 2 1 1 2 1 4 4 4 4 3 4 10
7 6 6 6 5 5 5 4 4 4 5 4 4 5 4 4 3 3 3 3 4 3 2 1 3 3 3 2 2 1 2 1 3 3 3 4 3 2 2 2 1 1 0 0 1 2 3 3 2 2 2 1 1 2 1 3 5 5 5 5 5 11
7 8 7 7 6 5 5 5 6 6 4 5 5 4 4 4 3 4 3 3 2 3 3 2 2 3 3 2 2 1 1 2 2 2 2 3 3 2 2 1 1 0 0 0 1 1 2 3 3 2 3 0 1 2 3 4 4 5 5 5 4 9
8 8 7 7 6 5 5 4 4 4 4 5 4 4 4 4 4 4 3 3 3 3 2 2 2 2 3 2 2 2 2 2 2 2 2 2 2 3 2 1 1 0 0 0 0 2 3 3 4 3 2 1 1 2 3 3 3 4 4 4 5 6
9 9 8 7 5 5 5 5 4 4 5 5 4 4 4 4 4 4 4 3 3 3 3 4 3 2 4 3 2 2 2 2 2 1 1 3 2 2 2 1 0 0 0 1 1 2 2 3 4 3 1 1 0 2 3 5 4 5 4 4 5 5
9 8 7 6 6 5 5 5 5 5 5 4 4 5 4 4 3 2 2 2 2 2 3 3 3 3 2 3 3 2 2 1 1 0 0 1 0 1 1 1 1 1 1 1 2 2 2 3 3 1 1 2 2 3 4 2 2 3 5 5 5 4
7 7 6 6 6 6 6 5 5 4 4 4 4 3 3 3 4 2 2 2 2 2 2 3 3 3 3 3 3 3 1 2 2 1 1 1 1 0 0 0 0 1 2 1 2 2 2 2 3 3 0 2 1 3 4 5 3 3 3 4 4 3
7 6 6 7 6 5 5 4 3 3 4 4 3 3 3 3 3 2 2 1 2 1 2 3 3 4 4 4 4 3 2 2 1 2 2 2 2 1 0 0 1 0 0 1 1 2 2 4 4 3 3 3 2 2 3 4 5 4 2 1 1 1
6 7 5 5 5 5 4 3 2 2 3 4 4 3 3 3 3 3 3 2 2 2 4 3 4 3 4 4 4 4 3 3 3 2 2 1 1 1 0 1 2 1 1 2 2 2 3 4 4 3 4 2 3 2 4 4 4 4 4 3 2 1
6 5 5 5 5 5 3 4 3 3 4 4 4 4 3 2 3 2 3 3 2 2 2 2 1 1 1 3 4 3 3 4 3 2 2 2 2 2 2 3 2 2 2 3 3 2 2 3 3 4 3 3 4 4 3 2 3 4 4 4 4 3
6 6 5 5 4 4 4 3 3 3 3 3 3 3 3 3 3 3 2 2 2 2 1 2 3 3 0 0 1 0 2 1 2 3 3 2 1 2 1 1 1 2 3 2 3 3 3 3 3 3 3 3 4 4 4 4 1 3 2 3 4 4
7 7 5 5 4 4 4 3 3 3 3 3 2 2 2 4 4 3 2 2 2 2 2 2 2 3 1 2 4 5 2 5 1 2 2 2 2 1 1 2 2 1 2 3 4 3 2 2 3 2 2 3 3 3 4 3 3 2 2 3 3 3
4 4 5 5 5 4 4 4 4 4 3 3 2 2 2 3 4 4 3 2 1 1 1 1 2 3 3 3 2 1 2 2 3 1 2 2 2 2 2 2 3 3 1 3 3 3 1 2 2 2 2 2 2 3 2 3 3 3 4 2 1 4
5 5 5 5 5 5 5 5 4 4 3 3 3 2 2 3 4 4 3 3 3 2 2 2 2 3 3 4 3 1 0 2 0 0 4 3 2 2 2 2 4 3 3 3 4 2 3 3 2 1 1 1 1 2 1 2 3 4 3 2 1 1
5 6 6 5 5 5 5 5 6 4 4 2 2 3 2 1 2 3 3 3 4 4 3 3 3 3 3 3 3 2 2 2 1 1 4 1 1 1 2 2 3 5 4 3 3 2 2 3 2 1 0 1 0 1 2 1 2 3 4 4 4 2
6 7 8 7 6 6 5 4 2 3 4 1 3 2 3 1 1 2 2 3 3 3 3 2 3 4 4 3 3 3 4 2 1 2 3 3 3 2 2 3 3 2 3 2 1 1 1 2 3 0 3 1 1 1 2 3 2 3 3 5 5 5
7 7 7 7 8 6 5 6 5 4 3 2 2 3 2 2 2 2 2 1 1 1 1 1 1 2 2 2 2 3 3 2 2 1 1 1 1 2 2 1 2 2 2 2 2 1 1 2 1 2 1 1 2 2 2 4 5 2 2 1 3 4
7 7 6 6 7 6 3 3 5 4 5 3 2 1 2 2 2 3 3 3 2 2 2 1 2 3 2 2 2 2 2 1 2 1 2 1 0 1 2 3 2 4 2 2 1 1 1 1 2 2 1 1 1 1 1 2 1 1 2 2 2 1
7 6 6 5 5 4 6 6 6 6 4 4 3 2 3 3 3 4 5 4 4 3 4 3 2 3 2 3 3 3 2 2 2 1 2 2 2 1 1 1 1 2 4 2 1 0 0 1 2 3 0 0 1 1 1 0 0 1 1 2 3 2
8 7 6 6 7 7 7 7 6 5 5 6 4 3 4 4 3 2 3 5 3 3 4 4 3 3 4 4 3 4 4 3 3 2 3 3 2 3 2 1 2 2 2 3 2 1 0 1 2 1 4 3 2 1 1 1 1 1 1 1 2 4
6 6 7 7 8 8 7 8 6 6 4 4 4 3 3 4 2 4 4 1 3 3 4 4 3 3 4 4 4 3 3 4 3 3 2 2 2 2 1 1 2 2 1 1 2 2 1 1 1 2 2 1 1 2 1 1 0 1 2 1 1 1
8 7 7 7 8 8 7 6 7 7 6 6 6 1 0 0 3 1 2 4 3 3 3 5 4 4 4 4 5 4 4 4 4 4 3 4 3 2 2 1 1 2 2 2 2 2 3 2 2 1 2 2 2 1 3 1 1 1 1 1 1 1
6 7 6 7 6 8 8 6 5 4 4 5 5 5 3 2 0 1 4 3 3 3 3 3 5 4 4 5 6 5 5 5 5 4 4 4 3 2 4 3 2 2 2 2 3 4 3 3 2 1 1 1 1 1 1 0 1 1 2 2 1 3
6 6 6 6 7 5 7 7 7 6 4 1 3 3 3 2 2 1 4 3 4 3 3 3 3 5 4 5 5 6 5 5 5 4 4 5 3 3 3 3 3 3 3 2 2 2 3 2 1 2 2 2 2 2 1 1 2 2 1 1 0 1
5 5 5 5 5 5 5 7 7 6 7 4 2 2 3 4 2 2 4 3 3 3 3 4 4 4 4 4 5 5 5 6 5 5 5 5 4 5 4 4 3 3 3 4 2 3 2 1 1 3 2 3 3 1 2 3 3 3 2 2 2 1
5 6 5 4 4 7 6 7 8 8 8 7 4 4 5 3 2 2 3 1 2 2 2 3 4 4 4 4 4 4 5 5 4 5 5 6 5 5 4 4 4 5 5 5 4 4 5 4 3 4 3 3 4 2 1 2 1 2 2 1 2 4
10 7 5 2 3 5 8 7 8 9 9 8 8 6 7 6 4 4 3 3 0 2 2 2 3 4 4 4 5 4 4 4 5 6 6 5 4 5 4 4 5 5 5 4 3 5 4 5 5 6 5 4 5 4 4 3 1 2 4 2 3 1
6 5 7 7 7 6 5 6 6 7 8 8 7 7 6 6 4 4 4 3 2 3 1 3 2 4 3 4 5 5 4 5 5 5 5 5 4 4 5 5 5 5 5 5 4 5 6 4 5 6 6 3 5 5 5 2 2 4 4 4 4 3
13 14 13 11 9 7 5 5 6 7 8 8 8 8 7 7 5 3 4 4 4 4 4 3 3 4 4 3 3 4 4 4 4 4 5 5 5 4 5 5 4 5 5 3 4 5 5 4 5 4 3 6 5 6 4 3 3 4 3 3 4 2
13 12 9 7 7 7 6 5 5 5 7 6 7 7 7 6 5 4 3 3 2 1 2 2 2 1 0 2 4 4 4 5 4 5 5 5 5 5 5 5 5 5 4 3 5 5 5 5 6 5 4 4 5 5 4 3 3 4 3 4 4 2
13 9 6 7 8 9 7 5 6 5 5 5 5 5 6 5 4 3 4 4 3 2 2 2 2 1 1 1 4 4 4 4 4 5 5 5 5 5 4 6 4 5 4 2 6 6 4 5 5 4 4 3 5 3 3 3 4 4 4 2 4 3
7 1 8 7 6 4 3 8 7 7 5 3 4 8 8 7 6 4 3 3 3 3 1 1 2 1 1 0 1 3 4 4 4 4 4 4 5 5 4 5 5 5 5 4 5 4 4 6 3 4 4 4 4 4 3 2 3 3 3 4 3 3
Wind_Direction
148 144 146 152 146 138 148 139 139 141 144 140 137 133 134 136 138 140 139 133 118 107 117 123 120 121 145 128 149 156 158 154 158 157 155 152 145 145 145 139 131 130 100 43 39 44 36 33 39 42 57 64 45 39 113 133 134 134 138 152 140 188
145 149 152 146 143 143 145 141 140 143 143 144 141 138 132 138 131 119 136 120 123 127 118 115 134 136 117 151 155 165 163 166 165 165 161 161 158 157 152 145 139 132 139 15 18 54 35 22 30 44 59 74 47 22 46 145 136 141 143 149 142 205
159 155 148 142 141 142 130 134 139 132 136 140 143 122 115 114 88 107 104 120 127 123 128 135 132 145 154 156 170 170 169 166 164 173 168 169 165 164 162 151 154 152 124 8 31 43 34 20 13 50 44 67 87 72 39 142 136 146 152 154 156 201
165 159 151 146 138 131 135 130 130 123 117 106 96 104 103 114 112 121 119 107 113 135 131 153 172 173 170 142 181 176 169 169 169 174 174 165 173 173 174 171 167 154 90 33 8 27 17 355 2 46 67 83 128 223 137 158 155 158 153 169 174 202
166 158 147 148 143 139 132 129 126 125 121 113 112 107 113 119 134 129 121 113 118 116 118 160 35 70 98 105 72 72 125 122 139 158 148 142 158 200 151 159 110 80 115 79 0 352 14 346 351 356 57 35 82 281 116 156 158 154 164 178 182 200
156 153 151 144 139 149 144 148 140 137 125 112 119 119 122 129 136 132 127 133 128 114 110 87 72 77 75 82 104 116 123 130 126 138 113 143 157 148 158 165 163 136 160 78 21 328 324 325 321 328 22 81 111 276 158 160 161 160 173 179 194 201
149 147 147 145 144 146 157 161 149 146 139 131 128 128 127 126 125 132 135 146 141 153 147 100 98 92 89 95 129 125 137 142 140 147 153 142 165 178 172 179 164 182 57 42 358 336 317 299 270 298 316 92 162 237 182 171 173 169 178 186 196 202
158 158 154 154 152 152 161 163 167 166 140 151 140 139 134 137 134 136 149 161 150 154 158 122 109 116 117 112 156 149 123 132 137 159 159 153 162 178 180 188 183 225 85 55 1 327 309 298 295 258 282 133 191 216 195 191 179 177 179 183 194 202
161 157 155 154 157 154 159 158 167 151 143 163 141 145 145 142 146 154 160 162 155 158 143 115 132 137 120 145 161 151 148 159 155 164 145 186 177 175 195 193 176 191 72 24 346 297 288 297 298 294 258 265 182 208 191 181 182 177 180 182 194 204
164 162 157 156 154 150 160 163 176 164 158 157 156 150 149 151 160 159 164 170 170 159 161 143 156 146 147 164 174 158 159 167 147 130 152 186 221 178 189 179 105 37 326 254 284 281 319 314 310 298 303 45 87 202 193 176 179 179 185 186 196 207
165 157 150 146 148 148 157 176 187 171 158 144 152 149 148 147 153 168 169 163 171 177 149 131 152 155 144 158 174 177 184 123 124 133 272 195 257 205 147 188 185 208 234 264 260 308 9 339 310 304 201 169 222 148 166 184 198 177 183 195 195 202
155 152 146 138 149 153 169 182 183 163 145 121 138 135 142 151 163 163 153 169 180 186 125 121 148 155 149 158 179 192 159 144 187 181 134 224 250 338 139 263 206 212 219 219 279 355 10 16 16 359 254 116 160 161 164 164 184 201 202 194 197 203
147 140 141 147 148 153 156 166 155 162 117 120 120 133 148 166 146 138 142 160 161 123 87 142 161 165 157 165 178 186 175 158 174 180 181 191 175 132 75 353 291 271 80 63 85 15 1 32 35 12 38 33 62 138 167 168 175 173 204 239 274 244
144 137 137 133 133 141 149 133 119 101 110 104 121 137 151 144 138 138 142 130 120 111 131 150 159 162 157 162 178 186 177 171 172 167 169 155 132 114 139 203 257 161 136 117 72 37 44 42 16 16 44 30 44 50 155 169 176 171 164 172 178 200
139 132 134 138 136 133 129 125 116 103 93 107 111 112 92 103 113 131 131 131 115 115 119 127 112 123 140 164 170 181 187 193 162 150 145 145 147 155 182 224 191 142 79 65 83 41 85 78 60 45 23 27 41 30 59 143 165 167 176 173 161 181
138 140 140 139 127 128 127 109 106 123 87 96 110 120 126 124 123 112 111 102 85 106 89 116 113 81 19 342 302 206 306 259 161 155 155 152 108 124 178 163 128 131 120 56 81 40 37 72 52 51 20 35 36 47 56 51 101 185 175 160 178 177
154 152 140 123 116 114 104 111 113 95 102 109 121 132 128 122 126 133 125 125 124 144 141 102 91 103 99 36 26 18 324 316 281 147 131 127 96 64 122 124 55 60 128 132 103 96 53 58 61 26 25 43 27 52 61 56 60 47 105 157 188 198
145 138 129 129 132 120 103 98 89 103 121 103 116 140 130 130 125 109 104 108 106 122 151 120 117 123 131 113 109 216 325 271 287 46 73 85 70 72 50 106 94 37 70 107 97 108 91 58 78 72 35 40 33 40 55 61 59 55 49 56 200 207
139 129 120 116 108 94 96 86 83 85 81 85 89 91 108 99 107 115 126 144 154 164 165 137 109 122 128 116 125 273 253 239 337 220 45 27 42 50 44 36 115 84 45 79 127 154 155 132 91 57 45 351 59 90 27 36 53 56 34 10 359 298
126 119 110 109 112 106 104 114 110 86 76 69 68 99 56 115 125 138 164 168 166 170 176 158 137 129 127 131 144 144 201 252 210 125 104 226 285 169 131 118 117 127 113 66 52 115 118 114 69 65 337 316 322 152 126 37 52 44 7 351 358 355
137 135 138 139 136 137 122 93 70 105 133 157 140 125 102 122 125 162 173 179 176 173 164 145 141 140 142 158 140 164 190 200 135 139 176 211 215 187 186 157 141 96 121 97 59 72 54 94 122 74 346 336 339 334 128 124 78 41 12 336 346 355
138 144 147 150 148 146 150 158 150 169 145 114 88 90 67 27 37 46 84 107 119 110 108 113 117 112 117 129 149 174 187 186 143 184 182 258 215 160 125 115 116 58 34 121 122 146 229 106 27 158 131 308 335 337 40 79 101 94 123 43 348 354
146 140 142 142 139 143 120 127 132 152 142 107 17 30 90 54 57 66 38 51 72 98 132 124 141 141 145 185 167 171 207 121 138 151 134 89 16 88 139 174 139 130 82 46 108 192 241 146 152 163 187 97 341 45 342 28 9 130 135 145 153 349
147 143 141 136 122 100 99 89 83 110 89 109 138 100 82 58 62 62 47 38 47 61 70 85 118 163 169 167 171 162 121 118 143 149 126 140 160 206 164 143 123 120 128 114 130 308 81 55 136 131 52 128 195 115 346 325 342 298 248 162 130 153
155 152 138 125 119 117 103 83 85 76 88 85 65 57 66 43 27 81 84 51 36 54 86 79 80 112 148 160 128 124 141 149 150 141 144 146 170 201 217 180 152 138 153 153 186 180 66 120 90 91 138 104 19 30 223 243 35 268 321 89 111 149
150 146 132 131 134 131 132 130 122 113 103 87 100 98 116 132 97 95 97 47 39 55 86 85 84 91 109 118 123 136 131 123 117 105 109 116 121 102 111 106 204 175 141 193 160 124 162 97 131 94 105 119 161 167 177 239 147 161 320 300 269 210
162 148 134 138 141 131 131 142 148 147 149 153 146 234 231 217 131 99 76 81 65 34 51 96 83 94 103 113 113 109 107 101 101 102 101 93 79 102 104 116 147 161 171 162 132 152 176 169 93 67 93 102 90 107 179 140 161 118 79 317 305 227
162 143 138 139 144 143 142 141 129 129 139 147 157 161 161 161 348 92 72 46 63 43 34 58 90 81 99 107 109 103 103 102 98 95 100 95 107 101 90 67 85 101 96 122 154 159 153 148 175 180 123 115 78 65 35 54 128 154 156 139 300 317
143 126 126 138 140 147 141 146 142 136 126 149 145 144 128 77 80 38 72 32 56 40 47 46 63 94 88 102 101 107 102 98 96 96 99 100 91 84 90 96 87 83 95 62 102 139 133 160 144 169 136 84 91 63 53 59 66 73 105 108 305 43
122 108 119 126 133 135 140 138 137 146 141 150 131 98 102 95 62 45 80 44 51 56 48 60 56 74 89 88 96 99 97 97 100 98 92 95 92 78 70 74 73 97 101 84 43 77 104 113 102 107 118 155 96 33 20 19 26 38 48 61 129 35
80 72 78 95 135 152 160 158 152 153 150 151 162 152 126 110 82 78 102 69 79 71 60 88 86 70 85 97 91 95 101 99 91 89 86 82 81 89 79 81 73 71 62 72 68 75 72 62 80 75 67 81 112 131 140 100 14 45 100 78 41 9
40 55 65 69 148 174 168 167 157 153 153 158 164 161 153 159 164 159 157 150 142 77 62 68 91 101 96 100 103 93 94 93 94 94 90 97 95 91 85 79 70 69 68 62 64 74 71 67 70 77 59 55 68 78 69 104 152 128 108 144 124 128
104 137 161 174 180 184 167 161 152 154 157 160 165 157 153 158 168 164 172 152 144 146 157 101 117 111 133 128 121 112 107 105 98 98 107 98 98 97 91 83 83 80 78 74 75 81 75 66 72 81 86 55 70 60 55 31 85 94 62 97 105 96
165 175 181 177 160 158 169 159 159 163 164 162 167 158 157 159 171 166 175 169 178 175 184 186 180 162 173 139 112 126 120 110 108 109 105 105 99 90 85 84 81 81 77 79 80 79 90 89 73 81 93 80 64 75 63 55 90 77 96 65 47 63
167 184 182 156 136 148 153 159 163 171 168 171 168 160 156 154 157 161 167 163 201 239 227 248 237 248 302 125 126 117 121 122 128 123 115 108 104 97 96 92 88 93 83 81 80 83 71 82 80 77 66 85 84 55 52 44 66 77 89 88 117 105
169 169 167 138 153 157 151 152 156 171 188 180 172 149 136 134 142 157 171 167 191 209 249 281 298 333 290 171 135 127 121 133 136 128 121 120 115 108 107 104 95 89 82 72 87 81 91 87 87 85 88 81 73 53 45 59 71 74 62 108 111 116
83 340 45 20 34 36 130 158 172 165 171 183 182 157 156 159 158 160 170 178 177 202 217 244 280 327 279 293 160 144 131 129 132 132 128 129 127 126 125 118 119 110 106 92 91 99 99 91 94 95 77 73 100 75 31 57 69 77 104 87 93 101